Location: İstanbul
(41.0082°N, 28.9784°E)
Time: 03:11:03
(UTC+03:00)

SPROUT - Visible Passes

Search period start: 19 April 2024 00:00
Search period end: 29 April 2024 00:00
Orbit: 471 x 477 km, 98.0° (Epoch: 18 April)

Date Brightness Start Highest point End Pass type
(mag) Time Alt. Az. Time Alt. Az. Time Alt. Az.
19 Apr ? 04:07:25 28° NNW 04:07:25 28° NNW 04:09:16 10° NNW visible
20 Apr ? 03:39:09 34° NNE 03:39:09 34° NNE 03:41:25 10° N visible
21 Apr ? 03:10:38 22° NE 03:10:38 22° NE 03:12:53 10° NNE visible
21 Apr ? 04:44:44 15° WNW 04:44:44 15° WNW 04:45:48 10° NW visible
22 Apr ? 02:41:53 11° ENE 02:42:02 11° ENE 02:42:52 10° NE visible
22 Apr ? 04:15:58 31° NW 04:15:58 31° NW 04:18:07 10° NNW visible
23 Apr ? 03:46:57 47° NNE 03:46:57 47° NNE 03:49:39 10° N visible
24 Apr ? 03:17:42 26° ENE 03:17:42 26° ENE 03:20:28 10° NNE visible
24 Apr ? 04:51:44 15° WNW 04:51:44 15° WNW 04:52:55 10° NW visible
25 Apr ? 02:48:12 12° ENE 02:48:41 12° ENE 02:50:10 10° NE visible
25 Apr ? 04:22:13 33° WNW 04:22:13 33° WNW 04:24:42 10° NNW visible
26 Apr ? 03:52:29 65° NNE 03:52:29 65° NNE 03:55:33 10° N visible
27 Apr ? 03:22:28 29° ENE 03:22:38 29° ENE 03:25:42 10° N visible
27 Apr ? 04:56:28 14° W 04:56:28 14° W 04:57:46 10° WNW visible
28 Apr ? 02:52:14 12° E 02:53:05 13° ENE 02:54:48 10° NE visible
28 Apr ? 04:26:12 34° W 04:26:12 34° W 04:29:00 10° NNW visible
